Showing default

YAM-3, 48915

Orbit data source: Space-Track

YAM-3, 48915 is a payload satellite owned by Loft Orbital (US) in SSO that was launched on Wed, 30 Jun 2021 UTC via an FALCON 9 launch vehicle from the Air Force Eastern Test Range (AFETR). Payload-class satellites include a variety of spacecraft equipped with specific instruments for various scientific and technological missions. These include communications satellites like Starlink; space stations such as the ISS; scientific satellites like the Hubble; Earth observation satellites from companies like Planet Labs, Umbra, and HawkEye 360; GPS; miniature CubeSats for education and research; and military/defense satellites.

Loading next visibility...
Identifier
48915, 2021-059AN
Orbit
SSO
Country
Flag of USUS
Related business
Manufacturer
Blue Canyon
Mission
Operational Commercial Technology
Bus & Motor
YAM, Unknown motor
Mass
~80 kg wet, ~80 kg dry
Launch date (UTC)
2021-06-30 (4 years ago)
Launch vehicle
FALCON 9
Launch site
Air Force Eastern Test Range (AFETR)
Object type
Payload
Rocket body
Debris
Shape & HBR
Box + 2 Pan, 0.5 m
Radar Cross Section
0.446 m², Medium (>0.1 m² and < 1m²)

Expand to show TLE details & history
Last TLE update: 1 day ago

TLE from 1 day ago
0 YAM-3
1 48915U 21059AN  25260.98882073  .00010088  00000-0  25509-3 0  9995
2 48915  97.6929  66.8942 0005169 252.5006 107.5674 15.39985687234973
Epoch: 2025-09-17T23:43Z
TLE epoch observation values (Epoch: 2025-09-17T23:43:54.111Z)
Latitude
-0.00004°
Longitude
73.76188°
Altitude
450.327 km
Speed
7.642 km/s
True Right ascension
04h 27m 34s
True Declination
0° 00' 00"
Sunlit
Object was in daylight at epoch
Visualization orbit readout
Latitude
Unknown
Longitude
Unknown
Altitude
Unknown
Speed
Unknown
Apparent Right ascension
Unknown
Apparent Declination
Unknown
Sunlit
N/A
Visualization observer readout
Local Sidereal Time
19:19:20
Azimuth
Unknown
Elevation
Unknown
Doppler factor
Unknown
Orbital elements
Apogee altitude
446.629 km
Perigee altitude
439.578 km
Semi-major axis
6,821.24 km
Eccentricity
0.00052
Inclination
97.6929°
RAAN
66.8942°
Arg. of periapsis
252.5006°
True anomaly
107.62386°
Mean anomaly
107.5674°
Eccentric anomaly
107.59563°
Mean motion
3.85255 °/min
Orbital period
93.44 mins
BSTAR
0.00025509
Loading maneuver chart data...
Computing Atmospheric mass density...
Loading historical data...
Loading historical data...
Loading historical data...
Loading historical data...
Loading historical data...
Loading historical data...
Loading historical data...

Documentation

Showing up to 5 results
|